Flag for U.S.A. Weather past 2 weeks in Akron, Ohio, U.S.A.

Now
73 °F

Scattered clouds.


Feels Like: 76 °F
Forecast: 61 / 73 °F
Wind: 9 mph from Southwest

Location: Akron Fulton International Airport

Current Time: Jul 1, 2015 at 1:18:31 PM

Latest Report: Jul 1, 2015 at 12:54 PM


Visibility: 10 mi

Pressure: 29.90 "Hg

Humidity: 66%

Dew point: 61 °F

Location of AkronLocation

Historic Weather in Akron — Graph

°F

Akron temperature yesterday

Maximum temperature yesterday: 77 °F (at 1:54 PM)
Minimum temperature yesterday: 63 °F (at 2:54 AM)
Average temperature yesterday: 67 °F

Past Weeks' High & Low Weather Summary

 TemperatureHumidityPressure
High85 °F (Jun 18, 3:54 PM)93% (Jun 18, 10:54 PM)30.14 "Hg (Jun 18, 10:54 PM)
Low58 °F (Jun 29, 12:54 AM)40% (Jun 23, 3:54 PM)29.57 "Hg (Jun 28, 1:54 AM)
Average70 °F75%29.92 "Hg
* Reported Jun 16 11:54 AM — Jul 1 11:54 AM, Akron, Weather by CustomWeather, © 2015

Note: Actual official high and low records may vary slightly from our data, if they occured in-between our weather recording intervals... More about our weather records

Advertising

Akron weather history for previous 24 hours

 ConditionsComfort  
Time TempWeatherWind HumidityBarometerVisibility
11:54 AM
Wed, Jul 1
71 °FSunny.8 mph71%29.89 "Hg10 mi
10:54 AM68 °FOvercast.10 mph78%29.89 "Hg7 mi
9:54 AM66 °FOvercast.12 mph81%29.86 "Hg6 mi
8:54 AM66 °FCloudy.12 mph84%29.85 "Hg6 mi
8:03 AM65 °FFog.10 mph87%29.86 "Hg5 mi
7:54 AM65 °FFog.12 mph87%29.84 "Hg5 mi
6:54 AM64 °FFog.8 mph90%29.83 "Hg3 mi
5:54 AM64 °FFog.8 mph90%29.81 "Hg4 mi
4:54 AM65 °FFog.8 mph91%29.80 "Hg5 mi
3:54 AM65 °FFog.8 mph91%29.79 "Hg5 mi
2:54 AM65 °FFog.9 mph91%29.78 "Hg5 mi
1:54 AM66 °FMostly cloudy.7 mph87%29.79 "Hg7 mi
11:54 PM
Tue, Jun 30
66 °FPassing clouds.9 mph90%29.79 "Hg7 mi
10:54 PM65 °FClear.5 mph91%29.80 "Hg10 mi
9:54 PM65 °FSunny.No wind91%29.79 "Hg10 mi
8:54 PM66 °FSunny.3 mph90%29.78 "Hg9 mi
7:54 PM68 °FSunny.8 mph84%29.78 "Hg10 mi
6:54 PM69 °FScattered clouds.6 mph84%29.76 "Hg10 mi
5:54 PM68 °FLight rain. Mostly cloudy.5 mph87%29.77 "Hg10 mi
4:54 PM67 °FLight rain. More clouds than sun.10 mph87%29.77 "Hg9 mi
4:03 PM66 °FStrong thunderstorms. Fog.14 mph87%29.81 "Hg0 mi
4:00 PM66 °FThunderstorms. Mostly cloudy.24 mph84%29.82 "Hg1 mi
2:54 PM76 °FScattered clouds.10 mph60%29.76 "Hg10 mi
1:54 PM77 °FPassing clouds.8 mph62%29.78 "Hg10 mi
Weather by CustomWeather, © 2015

See weather overviewHow to use our weather pages